Regional Weather Roundup
Issued by NWS

Home | Current Version | Previous Version | Text Only | Print | Product List | Glossary On
Versions: 1 2 3 4 5 6 7 8 9 10 11 12 13 14 15 16 17 18 19 20 21 22 23 24 25 26 27 28 29 30 31 32 33 34 35 36 37 38 39 40 41 42 43 44 45 46 47 48 49 50
919
ASUS44 KFWD 101915
RWRTX
NORTH TEXAS HOURLY WEATHER ROUNDUP
NATIONAL WEATHER SERVICE FORT WORTH TX
100 PM CST SAT DEC 10 2016

NOTE: "FAIR" INDICATES FEW OR NO CLOUDS BELOW 12,000 FEET WITH NO
SIGNIFICANT WEATHER AND/OR OBSTRUCTIONS TO VISIBILITY.

TXZ118-119-102000-
DALLAS/FORT WORTH METROPLEX

CITY           SKY/WX    TMP DP  RH WIND       PRES   REMARKS
DFW AIRPORT    CLOUDY    47  26  44 S17       30.33F
DALLAS LOVE    CLOUDY    47  27  45 S15       30.36F
FTW MEACHAM    CLOUDY    48  30  49 S17       30.33F
DAL-EXECUTIVE  CLOUDY    46  27  47 SE13      30.34F
FTW-ALLIANCE   CLOUDY    47  28  47 S15       30.32F
FTW-NAS-JRB    CLOUDY    48  30  49 S14       30.34F
FTW-SPINKS     CLOUDY    46  30  53 SE14      30.36F
ARLINGTON      CLOUDY    47  27  45 S12       30.35F
GRAND PRAIRIE  PTSUNNY   46  27  46 SE12G18   30.36F
ADDISON        CLOUDY    45  30  57 S12G21    30.35F WCI  39
MESQUITE       CLOUDY    45  27  49 SE10G17   30.39F WCI  39
LANCASTER      CLOUDY    47  27  47 SE13      30.38F
$$

TXZ091>094-102>105-117-120-121-131>134-102000-
NORTH CENTRAL TEXAS

CITY           SKY/WX    TMP DP  RH WIND       PRES   REMARKS
SHRMAN/DENISON CLOUDY    45  28  52 S18       30.34F WCI  37
GAINESVILLE    CLOUDY    44  26  49 S16       30.32F WCI  36
BOWIE          CLOUDY    46  28  49 SE14G22   30.26F WCI  39
BRIDGEPORT     CLOUDY    47  32  55 S12       30.31F
DECATUR        CLOUDY    45  27  50 S15G21    30.28F WCI  38
DENTON         CLOUDY    46  27  47 S20       30.32F WCI  38
MCKINNEY       CLOUDY    44  28  53 SE15      30.35F WCI  37
BONHAM         CLOUDY    43  23  45 S12       30.36F WCI  37
GREENVILLE       N/A     45  27  49 S13       30.38F WCI  38
ROCKWALL       CLOUDY    44  27  50 SE8G16    30.37F WCI  40
TERRELL        CLOUDY    45  24  43 S13       30.39F WCI  39
WAXAHACHIE     CLOUDY    46  29  51 SE12      30.37F
CLEBURNE       CLOUDY    45  30  57 S15       30.36F WCI  38
GRANBURY       CLOUDY    47  34  60 SE16      30.34F
$$

TXZ083>090-098>101-113>116-127>130-139>142-154-155-102000-
WESTERN NORTH TEXAS

CITY           SKY/WX    TMP DP  RH WIND       PRES   REMARKS
WICHITA FALLS  MOSUNNY   48  29  47 S22       30.22F
WF-KICKAPOO    MOSUNNY   48  30  50 S17       30.24F
VERNON         CLOUDY    51  29  42 S18       30.18F
ABILENE        SUNNY     53  38  56 S24G30    30.21F
ABILENE-DYESS  SUNNY     53  37  54 S20       30.19F
CISCO          SUNNY     50  34  53 S20G30    30.25F
BRECKENRIDGE   SUNNY     54  32  43 S16G28    30.23F HAZE
GRAHAM         SUNNY     51  32  49 S15G25    30.23F
MINERAL WELLS  CLOUDY    47  29  49 SE16      30.28F
STEPHENVILLE   CLOUDY    45  32  62 S10G20    30.33F WCI  39
COMANCHE       CLOUDY    48  35  61 S12G17    30.31F
BROWNWOOD      CLOUDY    48  32  53 S12       30.29F
COLEMAN        CLOUDY    51  38  61 S17       30.27F
$$

TXZ143>147-156>162-174-175-102000-
CENTRAL TEXAS

CITY           SKY/WX    TMP DP  RH WIND       PRES   REMARKS
WACO           PTSUNNY   47  30  51 S9        30.38F
WACO-MCGREGOR  CLOUDY    47  33  58 SE10      30.37F
HILLSBORO      CLOUDY    46  32  57 SE13      30.37F
CORSICANA      CLOUDY    46  27  47 SE10      30.41F
MEXIA          CLOUDY    46  25  43 SE10G16   30.38F
HEARNE         CLOUDY    48  32  53 SE7       30.41F HAZE
CAMERON        CLOUDY    50  32  50 SE6       30.39F
TEMPLE         CLOUDY    49  31  49 SE9       30.37F
KILLEEN        CLOUDY    48  33  57 SE9       30.34F
KILLEEN-SKYLRK CLOUDY    49  32  52 SE9       30.36F
FORT HOOD      CLOUDY    49  31  50 S9        30.32F
GATESVILLE     PTSUNNY   46  32  57 S8        30.37F
HAMILTON       CLOUDY    46  37  69 S14       30.33F
LAMPASAS       CLOUDY    48  38  70 S8        30.34F
$$

TXZ095>097-106>112-122>126-135>138-148>153-164>167-102000-
EAST TEXAS

CITY           SKY/WX    TMP DP  RH WIND       PRES   REMARKS
PARIS          CLOUDY    43  25  49 S15       30.39F WCI  35
SULPHUR SPRNGS CLOUDY    45  22  41 SE9       30.42F WCI  40
MOUNT PLEASANT MOSUNNY   43  24  47 SE7       30.43F WCI  39
GILMER         CLOUDY    42  26  52 SE7       30.42F WCI  38
MINEOLA        CLOUDY    45  25  45 SE8       30.40F
TYLER          CLOUDY    45  26  47 SE9       30.41F
LONGVIEW       CLOUDY    45  28  51 SE7       30.42F
MARSHALL       CLOUDY    45  25  45 CALM      30.46F
ATHENS         CLOUDY    43  27  52 SE6       30.40F WCI  39
PALESTINE      CLOUDY    46  29  52 SE6       30.43F
JACKSONVILLE   CLOUDY    45  29  52 S3        30.43F
HENDERSON      CLOUDY    46  28  50 E3        30.44F
CENTER         CLOUDY    52  22  31 E5        30.44F
NACOGDOCHES    CLOUDY    48  27  43 E6        30.41F
LUFKIN         CLOUDY    48  26  42 SE6       30.43F
$$

SUPPLEMENTAL OBSERVATIONS (CENTRAL)

CITY           SKY/WX    TMP DP  RH WIND       PRES   REMARKS
DENISON DAM      N/A     43  23  45 S12         N/A  WCI  37
CADDO GRASSLND   N/A     45  25  45 S12         N/A  WCI  39
PAT MAYSE LAKE   N/A     43  23  45 SE14        N/A  WCI  36
GREENVILLE       N/A     45  23  42 SE10        N/A  WCI  39
LAKE LIMESTONE   N/A     48  28  46 SE7         N/A
MCGREGOR         N/A     48  32  53 S9          N/A
TEMPLE           N/A     48  32  53 SE9         N/A
$$

SUPPLEMENTAL OBSERVATIONS (WEST)

CITY           SKY/WX    TMP DP  RH WIND       PRES   REMARKS
MILLERS CREEK    N/A     54  37  54 SW15        N/A
POSSUM KINGDOM   N/A     52  32  46 S16G25      N/A
LBJ GRASSLAND    N/A     46  28  49 CALM        N/A
GRANBURY         N/A     46  34  61 S16         N/A  WCI  40
COMANCHE         N/A     48  34  57 S15G23      N/A
HAMBY            N/A     54  39  58 SW22        N/A
IVIE RESERVOIR   N/A     55  41  58 S20G31      N/A
COLORADO BEND    N/A     46  36  66 SW8         N/A
$$

SUPPLEMENTAL OBSERVATIONS (EAST)

CITY           SKY/WX    TMP DP  RH WIND       PRES   REMARKS
CLARKSVILLE      N/A     45  21  39 SE10        N/A  WCI  39
TEXARKANA        N/A     46  25  42 E3          N/A
LINDEN           N/A     45  23  42 SE5         N/A
GILMER           N/A     45  27  49 SE7         N/A
HENDERSON        N/A     46  28  49 E5          N/A
LUFKIN           N/A     50  27  40 MISG        N/A
N SABINE NF      N/A     52  28  40 MISG        N/A
S SABINE NF      N/A     52  25  35 NE5         N/A
$$

SUPPLEMENTAL OBSERVATIONS ARE A COLLECTION OF AUTOMATED INSTRUMENTS
THAT ARE MAINTAINED BY A VARIETY OF FEDERAL AND STATE AGENCIES.
CERTAIN ELEMENTS...SUCH AS HUMIDITY VALUES AND SUSTAINED WIND
SPEEDS...MAY BE APPROXIMATED.





USA.gov is the U.S. government's official web portal to all federal, state and local government web resources and services.